Theta_e
312 313 312 312 312 312 311 310 308 308 308 306 305 305 306 306 306 306 306 307 307 307 307 307 308 307 307 308 308 309 309 311 313 316 321 318 312 313 313 314 314 314 315 314 314 315 315 315 313 314 315 317 317 318 319 319 334 349 344 335 323 316 317 316 319 323 323 321 320 317 318 321 318 317 315 314 316 315 314 313 312 311 309 310 311 313 314 315
311 312 311 311 311 311 311 311 309 307 308 307 306 305 306 306 307 307 306 307 306 306 307 307 307 307 307 308 308 310 309 313 316 318 320 315 311 313 314 313 314 315 315 315 315 314 315 316 313 313 317 319 316 318 321 319 327 340 341 330 321 323 320 314 319 320 319 319 319 318 318 320 318 318 316 315 316 314 317 316 312 314 311 310 312 313 314 314
310 311 310 311 311 310 311 312 311 310 308 307 306 306 306 307 306 307 307 307 307 307 307 307 307 307 308 308 309 311 311 316 321 321 318 313 312 314 314 314 314 314 315 315 316 315 315 315 312 313 319 318 316 321 325 322 320 330 338 327 319 325 320 314 318 318 317 318 319 318 316 317 317 316 315 316 317 315 321 320 315 316 313 312 311 311 314 314
310 310 309 310 311 310 311 311 312 312 311 309 307 306 306 307 307 307 307 307 308 308 307 307 307 307 308 309 310 311 314 319 322 321 315 311 313 314 313 314 313 314 315 315 316 315 315 314 313 316 319 317 322 327 324 322 320 323 330 324 318 320 318 317 317 317 318 318 320 319 316 317 315 315 316 317 317 316 321 321 320 320 314 313 312 310 312 312
310 309 309 309 310 311 311 311 312 313 313 310 308 307 307 307 307 308 308 308 308 308 308 307 307 308 308 310 311 312 316 320 319 316 313 312 314 314 314 313 313 315 315 316 316 316 315 313 315 321 320 317 325 328 319 317 321 321 320 319 320 318 317 317 317 319 318 318 320 318 315 316 315 316 317 318 318 320 321 320 320 318 312 312 311 310 310 310
309 308 309 309 310 311 311 311 312 312 311 310 309 307 307 308 308 309 309 309 308 308 308 308 308 308 310 311 313 314 315 316 316 315 312 312 313 313 314 313 313 314 315 316 316 315 316 315 317 322 322 320 321 322 317 316 320 322 318 317 319 318 318 318 318 319 319 319 320 318 316 316 316 316 317 317 318 318 315 315 315 312 309 310 309 309 310 309
309 308 308 309 309 310 311 311 312 310 308 308 309 307 307 308 307 307 309 309 308 309 309 309 309 309 312 311 315 320 318 315 316 314 312 312 313 314 313 312 313 314 315 315 315 316 318 320 319 318 322 321 318 318 318 318 323 326 320 317 318 317 319 319 319 320 320 320 318 317 315 315 318 316 315 317 317 313 309 308 308 307 307 308 309 309 309 309
311 310 309 309 309 309 311 312 312 312 309 307 307 308 308 307 307 306 307 308 308 309 309 310 311 311 312 312 317 323 320 319 317 313 313 313 312 313 312 313 313 314 316 315 315 316 318 320 317 316 320 318 316 317 317 319 324 324 319 318 319 318 319 319 320 320 320 318 316 316 316 318 320 315 315 319 315 310 308 306 305 306 308 309 312 309 307 308
311 311 310 310 309 309 309 311 311 312 312 309 307 307 308 308 307 306 307 308 308 309 310 311 312 312 313 314 315 316 317 319 317 313 313 312 313 313 312 313 314 315 316 316 315 315 317 318 316 316 318 316 316 317 317 320 321 319 319 319 319 319 319 319 319 320 320 318 317 316 317 320 318 314 315 318 313 310 308 308 308 309 311 312 312 308 305 307
311 310 311 311 310 309 309 310 310 311 312 311 309 307 307 308 307 306 308 308 309 310 310 312 313 313 314 313 312 312 316 318 315 314 314 313 313 312 313 314 314 315 316 316 315 315 317 317 316 315 317 318 317 316 317 319 318 318 319 318 319 319 318 318 318 320 319 317 317 317 319 319 315 314 317 317 310 309 310 310 310 311 312 311 310 307 305 307
312 311 310 310 310 310 311 311 311 311 312 311 310 308 307 307 307 307 308 309 310 311 311 313 313 314 314 314 316 316 317 317 314 314 314 313 313 312 313 314 314 316 316 317 315 314 315 315 313 313 317 317 316 317 316 316 316 317 318 319 321 321 319 319 319 318 317 316 317 317 318 317 313 315 320 316 309 309 311 311 309 311 311 309 310 308 305 305
313 312 311 310 310 311 311 311 311 311 311 311 310 308 306 307 307 307 309 310 311 312 313 314 313 314 314 315 320 319 318 318 315 314 314 313 314 314 314 315 315 316 317 317 315 314 314 314 314 316 317 316 317 318 316 315 315 317 318 319 324 325 322 320 319 318 316 316 318 316 316 319 316 316 319 313 308 309 310 310 310 310 310 310 311 309 306 304
313 313 312 311 310 310 311 310 311 311 311 311 310 308 306 306 306 308 310 312 313 313 314 314 314 315 314 316 318 316 319 320 316 315 315 315 315 315 316 315 315 316 317 317 316 313 312 314 316 317 317 318 319 316 315 316 315 318 317 317 323 326 324 319 316 316 316 316 318 316 318 327 326 319 315 309 307 310 310 310 309 309 310 310 310 310 308 304
313 313 312 311 310 310 310 309 309 310 311 310 309 308 306 307 307 309 311 313 314 314 314 314 314 315 314 316 317 315 319 320 318 317 316 316 315 316 316 315 315 315 316 317 316 314 314 314 314 315 315 317 317 314 320 323 320 319 316 322 325 321 328 327 317 317 316 314 316 316 319 325 327 320 313 307 307 310 311 310 308 309 309 309 309 309 309 305
314 314 313 312 311 310 310 308 307 308 311 310 308 307 307 308 309 310 312 315 315 314 314 314 314 316 319 320 316 316 319 319 319 317 316 316 315 315 315 314 315 315 315 315 314 314 314 314 316 318 315 315 318 320 329 331 329 327 317 327 331 319 330 333 317 316 318 314 313 316 320 320 320 319 312 307 307 309 311 309 308 309 308 308 309 308 308 305
315 315 314 313 312 311 310 309 307 307 309 309 307 308 308 310 312 313 314 314 315 316 316 316 314 316 320 320 316 316 318 318 318 317 316 316 316 316 315 314 314 314 315 313 313 314 314 317 317 317 317 317 324 335 339 332 334 337 323 326 333 323 325 328 317 317 317 316 313 314 321 322 320 317 310 307 308 309 311 310 308 308 307 307 307 307 307 305
315 315 314 314 313 312 311 310 309 308 308 308 308 308 310 313 314 314 314 313 315 318 318 317 315 314 315 315 316 318 317 316 318 317 316 317 317 316 314 314 314 313 314 313 314 315 314 318 316 317 322 320 324 335 336 326 329 337 325 321 330 325 321 325 323 318 314 316 316 314 316 318 319 316 309 308 308 309 311 310 308 308 307 306 307 306 305 304
315 315 315 314 313 313 312 311 311 309 309 309 309 311 313 315 315 315 315 314 315 315 315 315 313 311 312 313 315 319 317 316 317 316 317 318 316 315 315 314 313 313 316 316 315 315 317 322 322 322 324 319 321 328 328 326 329 334 328 323 327 324 320 323 325 319 314 315 316 316 315 315 316 315 312 310 308 309 310 309 308 307 307 307 306 307 305 304
316 315 315 314 314 313 313 312 311 310 310 310 312 314 313 313 315 316 316 315 316 312 311 316 313 311 314 315 317 318 317 317 317 317 317 317 315 315 315 313 315 317 318 320 316 317 322 326 325 324 323 320 321 323 325 328 330 334 334 331 329 326 323 324 324 321 316 315 317 316 316 315 314 314 314 312 309 309 309 309 309 308 307 307 306 306 306 305
316 316 315 314 314 313 313 313 311 310 311 311 315 314 312 314 312 313 318 320 320 315 316 319 314 315 318 319 320 318 317 317 316 318 316 316 315 315 315 313 319 322 320 325 321 317 322 326 325 325 325 323 320 320 322 323 323 326 329 328 328 327 325 324 324 322 316 316 320 318 315 316 315 315 315 312 310 310 309 309 310 309 308 307 306 307 306 305
317 316 315 314 314 313 314 313 310 310 311 312 315 316 318 319 311 311 321 324 319 314 319 320 314 315 317 317 318 316 318 318 315 317 316 315 315 315 317 316 320 322 321 327 322 316 319 323 326 326 323 320 320 319 318 319 319 320 322 323 325 325 323 322 322 320 315 316 323 321 317 316 315 314 315 314 313 312 310 310 310 310 308 307 307 306 307 305
317 316 316 315 314 314 314 312 311 311 312 312 314 318 319 318 315 314 318 322 321 316 317 318 314 316 316 315 317 316 319 321 318 318 316 314 315 316 318 320 322 323 321 322 322 320 321 323 323 320 318 318 319 318 316 318 319 319 320 320 322 324 322 322 322 319 315 317 325 325 320 318 317 316 316 316 315 313 310 310 311 310 309 308 307 306 307 306
318 317 316 316 314 314 313 312 311 312 312 312 313 316 317 316 317 315 314 320 325 321 319 319 317 318 317 315 316 316 318 322 322 320 316 314 316 318 319 320 322 323 320 320 324 325 325 328 324 317 317 319 319 319 318 317 319 321 321 320 322 324 322 324 324 320 317 318 321 324 320 317 316 318 319 317 315 314 312 311 310 310 310 308 307 307 306 306
319 318 317 316 314 314 312 311 312 312 312 312 312 316 318 317 317 316 319 322 323 323 321 318 317 317 318 315 316 317 318 320 322 320 315 314 316 317 318 320 321 321 320 320 323 324 324 326 322 317 319 320 320 321 320 320 321 323 323 321 321 323 323 325 324 322 326 326 321 320 321 323 323 321 321 319 315 314 314 312 312 311 311 310 307 307 306 305
319 318 318 317 315 314 312 312 313 313 312 312 312 316 318 317 316 315 320 322 319 322 319 315 318 319 317 314 315 318 318 318 321 319 314 314 316 317 317 318 321 323 320 318 319 321 322 320 320 321 320 319 321 322 323 324 323 323 325 323 321 322 323 324 324 323 329 334 325 319 326 334 335 329 325 325 321 318 316 314 313 311 311 311 309 307 306 304
319 318 318 317 316 315 312 312 313 312 314 312 311 315 318 317 317 315 319 322 318 319 317 315 318 319 316 316 316 317 317 318 318 317 315 314 315 317 318 317 319 321 320 318 319 320 320 319 321 327 325 323 323 322 324 324 321 324 328 326 322 322 324 324 324 324 329 333 324 320 328 333 331 327 328 331 328 325 320 315 314 312 311 310 308 307 306 304
319 318 317 317 317 315 312 312 312 313 315 313 309 315 318 317 317 315 315 319 316 316 319 316 314 315 317 316 314 314 317 318 317 315 314 314 315 316 319 319 317 318 318 319 321 320 321 320 320 325 327 327 325 323 325 322 322 327 327 328 326 322 324 324 322 325 329 329 325 325 328 327 325 324 325 327 326 325 322 318 316 312 310 309 307 307 305 303
320 318 317 317 317 315 313 312 313 313 314 312 309 314 318 316 315 316 313 313 313 315 320 317 313 313 316 315 313 315 317 318 319 317 313 313 315 316 318 319 318 319 318 320 322 320 322 324 323 323 324 325 324 326 326 321 323 328 324 327 330 326 329 330 326 328 327 324 328 330 325 325 329 327 323 322 324 327 325 322 319 314 311 309 308 307 305 303
320 319 317 317 317 316 314 313 314 313 311 312 311 313 317 315 314 318 315 312 315 319 319 317 316 315 316 315 314 317 318 319 320 317 313 313 314 315 318 319 318 318 318 318 321 321 321 322 322 322 322 322 325 328 327 322 321 323 322 326 329 327 330 333 331 329 328 326 329 330 326 326 330 329 325 323 326 329 326 322 320 315 312 309 308 307 305 303
320 319 318 317 317 316 314 313 314 313 312 313 313 314 317 316 314 315 314 310 314 322 318 316 318 317 317 316 316 318 319 319 317 315 316 315 315 316 316 317 319 322 321 318 321 322 320 316 316 321 322 322 325 323 321 322 320 320 326 331 333 331 331 334 331 327 329 328 327 329 328 326 329 331 329 326 328 330 327 326 324 318 313 310 307 306 305 303
320 320 318 317 317 315 314 313 313 313 313 313 315 316 317 318 317 315 313 310 310 317 317 317 318 317 317 317 318 319 320 319 316 316 318 317 317 319 318 317 321 324 323 321 323 323 320 318 319 320 320 323 325 320 318 320 319 323 334 335 332 332 331 332 331 328 330 329 327 328 325 323 328 331 329 326 326 324 323 326 329 325 318 310 307 306 304 302
320 319 318 318 317 316 314 314 313 313 314 315 316 317 315 317 319 316 313 310 311 318 321 320 320 318 317 318 319 319 320 320 317 317 319 318 318 319 318 319 321 322 323 323 324 323 322 324 323 319 317 322 326 324 321 320 319 325 332 330 328 330 330 330 330 328 328 327 322 320 322 323 325 326 326 325 324 323 321 319 322 326 322 312 307 305 303 302
319 319 319 318 317 316 315 314 313 313 315 316 316 318 317 316 318 316 313 312 316 321 321 322 321 318 318 320 320 318 319 320 318 318 319 318 319 318 318 321 320 322 326 323 321 323 325 325 322 318 319 322 323 323 323 323 322 323 326 328 328 328 331 334 332 327 327 328 320 315 320 325 325 325 324 322 321 323 322 318 319 322 321 314 308 305 303 301
320 319 318 318 317 317 315 314 313 314 316 317 317 320 319 317 317 317 314 312 318 323 322 322 321 318 318 322 322 319 319 321 318 318 319 319 321 320 320 320 318 323 330 323 321 324 326 326 323 320 322 323 320 320 325 326 322 321 323 326 327 330 335 336 333 331 331 330 321 315 322 329 331 329 323 320 321 323 323 320 317 316 315 312 307 305 303 301
320 319 318 317 317 316 316 314 313 315 317 317 319 320 318 317 318 319 316 312 317 325 323 320 320 320 320 323 323 319 320 323 318 318 321 320 321 321 320 320 317 322 327 322 322 323 323 327 327 320 320 322 320 321 325 325 322 321 323 325 325 329 331 329 329 328 326 327 324 320 324 329 328 324 318 319 322 321 320 318 315 314 311 309 307 305 303 301
319 318 317 317 316 316 315 314 313 316 318 318 320 320 317 318 318 318 318 314 314 322 323 320 322 323 322 322 322 319 320 324 320 319 321 319 320 320 319 320 317 317 320 320 324 325 323 328 324 316 319 320 319 321 322 324 325 321 321 324 324 323 325 326 326 322 320 325 326 322 325 327 325 322 319 320 323 321 320 318 315 313 310 309 307 304 302 301
318 316 316 316 316 316 316 314 314 316 318 319 320 320 317 317 318 317 318 315 313 319 322 321 322 324 322 322 323 321 320 323 320 320 322 320 320 321 319 320 319 316 317 320 325 326 325 328 322 317 321 317 315 322 323 321 322 323 324 325 321 321 326 330 329 327 326 329 327 323 325 326 325 326 322 319 320 321 321 321 315 311 310 308 306 303 302 301
317 316 317 316 316 317 315 314 315 315 318 319 319 319 318 317 317 316 317 315 316 320 321 318 319 323 323 322 323 322 320 322 320 320 322 321 321 322 319 320 321 316 316 318 323 325 324 326 322 317 320 316 313 320 323 318 317 322 327 324 322 328 330 327 328 330 330 330 329 326 324 322 322 325 325 320 320 322 321 320 317 313 311 307 305 304 302 301
317 317 318 318 316 316 315 315 315 316 319 320 317 318 318 317 315 316 317 315 315 318 319 318 319 321 323 322 323 322 320 322 320 319 322 321 321 322 318 319 321 317 316 316 320 325 324 325 325 317 315 316 316 319 324 321 316 318 320 319 321 327 327 326 327 328 329 330 331 329 325 323 322 323 326 323 323 326 321 320 319 315 310 306 304 303 302 301
317 318 319 318 316 316 315 315 316 318 320 319 316 317 317 317 316 317 317 316 315 317 317 317 318 319 322 322 323 323 321 321 319 319 322 320 320 322 318 318 321 318 316 316 319 324 323 323 326 319 313 317 321 321 322 322 318 318 320 320 320 320 322 325 325 325 328 331 332 331 326 326 326 322 323 323 323 324 322 320 319 314 309 306 304 303 301 300
316 318 319 317 316 316 315 315 317 319 321 319 316 316 316 317 318 318 316 315 316 319 318 318 318 318 320 322 322 322 322 321 320 319 321 320 320 322 320 318 321 319 317 317 319 321 322 325 328 323 318 320 324 321 317 319 320 319 320 321 320 319 321 324 324 324 326 327 330 331 327 327 328 322 320 321 320 319 318 317 317 314 310 307 304 303 302 300
316 318 318 316 316 315 315 317 318 319 320 318 315 315 316 316 317 318 317 315 316 317 318 320 320 318 318 320 321 322 322 322 320 319 321 320 319 321 321 319 319 318 317 319 319 319 324 328 329 326 321 320 322 318 315 318 319 317 320 322 321 320 321 325 326 325 324 324 325 327 326 325 323 320 320 322 321 319 317 315 316 316 311 307 305 303 302 300
317 318 317 315 316 316 316 319 319 317 317 315 313 315 316 316 316 317 317 316 315 315 316 318 321 319 317 319 320 321 322 321 321 320 320 320 319 320 322 320 318 318 317 319 319 319 324 327 327 325 321 319 321 319 316 317 317 317 322 324 321 319 320 323 326 324 325 326 324 325 327 323 318 317 320 321 321 322 319 316 316 316 313 308 306 304 302 301
316 317 316 315 315 316 318 319 318 315 314 313 313 315 316 315 316 316 317 316 316 316 315 316 320 322 320 319 320 321 322 321 321 320 320 322 321 321 323 321 319 318 319 321 321 319 322 326 327 327 326 324 324 322 318 316 317 319 322 320 318 319 320 322 323 323 324 326 325 326 327 323 319 318 318 320 320 319 319 317 314 314 315 311 306 304 302 301
314 316 316 315 314 316 318 319 318 315 314 314 314 315 316 316 316 316 317 316 315 316 316 315 318 322 324 324 322 321 321 321 321 321 321 321 321 320 322 322 319 318 319 321 321 319 322 326 326 326 328 328 327 325 322 319 317 319 321 319 318 319 320 321 322 323 323 324 325 326 324 323 325 323 319 320 320 318 319 318 314 313 313 310 306 304 302 301
313 314 316 317 315 316 318 319 319 316 315 316 316 315 315 316 316 315 316 317 316 316 316 316 316 319 323 326 325 324 323 320 321 324 323 321 321 321 320 320 320 319 320 321 321 321 325 326 324 324 327 326 325 326 324 321 319 320 320 319 319 318 319 320 322 323 324 324 324 323 323 324 325 324 322 323 322 322 322 321 318 315 312 309 307 305 302 301
311 313 316 318 317 317 318 318 319 318 316 316 317 316 316 316 316 316 316 317 317 316 315 316 317 318 321 324 325 326 324 322 323 325 323 321 322 320 316 316 319 319 321 322 321 324 329 326 323 325 325 323 324 326 325 322 320 321 320 319 319 318 319 320 321 322 325 326 325 323 323 324 322 322 324 325 325 325 324 323 321 316 310 308 306 304 303 302
310 313 315 316 316 317 319 318 318 318 317 316 316 317 317 316 316 317 316 316 317 317 317 317 317 318 319 321 323 325 325 325 325 324 323 322 322 319 315 316 317 317 319 321 319 323 328 325 323 325 324 323 323 325 324 321 320 321 320 319 319 318 318 319 320 321 322 324 324 323 325 325 322 320 320 322 323 323 321 321 318 313 309 308 307 306 304 302
309 311 312 312 314 316 317 317 317 317 317 316 316 317 317 317 316 316 317 316 316 317 318 319 318 318 318 319 321 323 324 325 325 324 324 323 323 321 319 320 318 315 317 320 318 319 323 324 324 324 324 323 323 323 322 320 320 320 320 319 319 318 318 318 319 320 320 321 322 323 324 323 320 321 321 321 320 319 317 317 316 314 313 310 308 307 305 302
308 310 310 310 311 313 314 315 315 316 316 315 314 314 315 317 317 316 317 317 317 317 318 319 319 318 318 319 320 321 322 323 324 324 323 323 323 321 321 323 322 316 316 318 317 315 318 323 324 322 323 324 322 322 322 321 321 321 320 319 318 317 318 318 318 318 319 320 320 320 322 321 319 322 323 321 319 316 315 316 316 316 314 311 308 306 304 303
306 307 307 308 308 310 313 314 314 316 315 313 313 312 313 314 316 316 317 316 317 317 317 319 319 319 319 319 320 320 320 320 321 321 322 323 322 321 321 322 323 319 316 316 316 314 315 319 322 321 323 324 322 322 323 321 319 320 321 320 318 317 317 316 317 318 318 320 320 320 321 320 319 321 321 320 319 317 316 316 315 314 313 311 309 307 304 303
305 305 305 306 307 309 311 313 314 315 315 313 312 311 312 313 314 315 316 316 316 317 317 318 318 319 320 320 319 320 320 321 322 322 323 323 322 322 323 320 318 317 316 315 315 315 315 318 321 322 323 324 323 323 322 320 320 321 322 321 319 317 317 316 317 317 317 318 320 320 320 319 319 320 319 319 320 319 318 316 314 314 312 309 308 306 304 303
Wind_Speed
2 2 1 1 1 0 1 1 1 0 0 0 1 1 1 1 1 2 2 2 2 3 3 5 5 6 7 7 8 9 8 7 3 0 2 2 3 5 5 4 4 5 5 6 7 5 5 8 10 13 8 3 3 2 3 2 2 5 4 4 2 2 1 3 6 6 4 5 5 4 4 7 3 1 2 4 8 5 4 5 3 6 6 6 7 9 8 9
2 2 1 1 1 1 1 1 1 0 0 0 1 2 2 2 2 2 2 2 3 3 4 5 6 6 7 7 8 9 9 7 2 1 2 4 6 7 6 5 5 7 6 6 8 8 5 6 10 11 7 2 3 2 2 2 3 4 3 4 2 5 2 2 5 5 3 5 6 3 3 6 5 3 2 1 0 2 5 4 3 5 5 6 8 9 10 11
2 2 1 1 1 1 1 1 2 1 1 1 1 1 2 2 2 2 2 2 3 3 4 5 5 6 7 7 8 9 9 5 1 1 3 7 9 8 7 6 6 7 6 6 7 7 4 5 7 5 4 2 2 3 3 3 3 2 4 4 3 6 2 1 3 3 3 5 7 2 2 4 4 3 2 3 4 2 3 3 2 2 4 4 5 9 12 13
2 1 1 1 1 1 1 1 2 2 2 1 0 1 2 1 1 1 2 2 3 4 4 4 5 6 7 8 8 9 8 3 0 2 5 9 9 8 6 6 7 7 6 7 7 6 6 5 4 3 4 2 3 4 3 2 2 2 4 3 5 4 3 1 2 2 2 5 7 3 3 3 3 2 3 6 5 2 6 7 7 8 10 8 5 8 11 13
2 2 1 0 1 1 1 1 2 2 2 1 1 1 2 1 1 1 1 2 3 3 3 4 5 6 7 8 7 8 6 4 1 3 8 10 9 7 6 5 6 6 6 7 6 6 6 5 5 5 4 2 4 5 2 3 2 3 2 3 5 4 3 3 3 1 3 5 5 5 4 3 1 0 4 8 6 5 6 7 8 8 11 10 8 9 10 11
3 2 1 1 0 1 2 2 2 2 1 1 1 1 1 1 1 1 1 2 3 3 3 4 5 6 6 7 7 6 3 2 3 5 9 10 9 7 5 4 4 6 5 5 6 7 7 6 6 4 3 3 2 3 0 4 3 4 2 1 2 3 4 3 2 2 4 6 4 4 3 1 2 1 3 7 6 5 3 4 7 9 12 13 12 11 9 8
4 2 2 2 1 1 2 2 2 3 2 1 0 1 1 1 1 1 1 2 2 3 3 3 5 5 6 6 5 4 2 2 4 8 11 10 9 6 4 1 3 5 4 5 7 6 5 7 6 3 4 3 1 2 1 4 5 6 1 2 1 2 4 4 4 3 5 7 5 3 3 2 5 3 1 4 5 2 0 5 11 12 14 15 11 9 8 9
5 4 3 2 2 1 1 2 3 3 3 2 2 0 0 1 1 1 1 2 2 2 3 3 4 5 5 3 2 3 2 3 5 11 11 10 9 7 4 0 2 3 3 6 7 2 3 6 3 2 4 2 1 1 1 4 6 5 2 2 1 1 1 2 2 4 5 4 3 3 2 5 6 3 1 5 5 2 3 7 10 12 12 11 8 8 9 10
6 6 4 3 4 3 2 2 2 2 3 3 3 2 2 1 1 1 2 2 2 2 3 3 4 5 5 2 4 1 4 3 8 12 10 10 9 7 4 1 1 1 3 5 5 4 3 2 1 1 3 2 2 1 1 4 2 1 3 1 1 2 3 0 2 3 4 3 3 3 3 6 4 2 3 5 7 5 5 7 7 9 8 7 6 7 9 9
6 5 5 4 4 4 3 3 3 3 3 3 4 3 3 2 1 1 2 2 2 2 2 2 3 3 3 2 5 1 4 2 8 12 10 10 9 7 5 2 1 1 3 4 5 6 3 3 3 2 5 1 1 1 2 3 2 2 4 2 1 2 4 2 4 5 3 2 4 5 4 5 3 1 3 4 6 6 7 7 5 7 7 6 6 6 9 10
7 7 6 5 5 4 4 4 4 4 4 4 4 4 3 2 1 1 1 1 1 1 2 2 2 2 2 3 5 3 3 3 9 11 10 10 9 6 4 3 3 3 2 4 5 5 3 2 2 2 2 1 1 2 2 2 2 2 3 2 4 4 5 3 5 5 2 2 5 7 3 4 3 1 6 5 7 7 8 7 5 7 6 6 6 5 7 9
8 8 8 7 6 5 5 5 5 5 5 5 6 5 4 3 2 1 1 1 1 1 1 1 1 1 0 3 3 5 3 4 8 10 10 9 8 6 4 3 3 3 3 4 5 4 4 1 3 4 0 2 1 2 0 1 2 2 3 2 6 7 5 5 4 4 5 2 5 6 2 5 3 6 6 4 8 6 8 8 5 6 5 5 6 4 5 8
9 9 9 9 8 7 6 7 6 6 6 7 6 5 4 4 3 1 2 2 2 1 1 1 1 0 2 0 3 6 6 6 8 10 10 8 7 6 5 4 3 3 3 4 4 4 4 2 5 5 2 4 1 1 2 2 2 0 2 2 4 7 5 6 1 3 6 3 4 5 2 6 7 8 4 5 10 8 7 7 6 6 5 5 5 4 4 7
10 10 10 10 10 10 9 10 9 7 7 7 5 4 5 3 2 3 3 3 3 2 1 1 1 2 2 2 4 4 7 7 8 10 10 9 8 6 6 5 4 3 2 4 4 3 3 2 5 5 2 3 1 0 3 5 3 1 2 2 2 2 4 7 1 6 6 3 3 5 2 7 9 8 5 7 9 11 9 8 7 6 6 5 5 5 5 6
11 10 10 10 10 11 11 12 11 9 7 5 4 4 4 1 2 3 4 4 4 3 3 3 3 3 2 3 4 3 7 7 9 11 10 10 9 7 6 6 4 4 3 3 4 3 3 3 5 4 0 2 3 3 4 4 3 3 1 3 3 1 5 9 2 8 7 1 2 5 2 7 10 8 6 8 7 9 9 8 8 7 7 7 5 6 5 5
12 11 10 10 10 10 11 11 12 11 7 4 3 3 1 2 3 4 5 4 4 4 3 3 4 5 2 2 1 2 6 7 8 11 11 11 9 7 8 8 4 5 4 4 5 4 4 5 3 2 1 2 4 4 4 4 4 3 1 3 3 2 3 6 3 4 4 2 1 3 3 4 6 4 3 7 7 8 7 8 9 9 8 8 6 6 5 5
12 12 11 10 9 10 10 10 10 9 6 3 2 1 2 2 3 5 5 5 6 5 5 4 4 4 0 1 1 3 5 7 10 13 12 10 8 9 10 6 4 5 5 5 5 3 4 5 1 0 2 3 3 5 4 2 4 4 1 2 4 3 2 3 4 3 2 4 4 4 4 7 7 3 3 6 7 7 8 9 10 9 8 7 7 6 6 6
13 13 12 10 9 9 8 8 8 7 4 3 2 3 4 3 3 5 7 8 8 7 5 3 4 2 3 3 3 3 5 9 12 13 12 9 10 10 7 4 4 6 5 4 3 3 3 4 2 1 3 2 2 5 3 4 4 3 2 2 3 3 3 4 5 2 4 3 5 5 5 12 12 7 6 7 7 9 10 9 8 8 8 8 7 7 7 7
15 13 12 11 10 9 8 7 6 5 4 3 4 7 6 4 3 4 6 7 6 4 2 3 4 3 4 4 4 4 6 10 12 12 11 11 12 8 5 5 6 6 4 2 2 1 2 3 4 2 1 3 4 6 7 8 7 6 5 4 3 3 4 5 5 5 7 4 5 8 8 12 13 11 8 7 7 9 9 7 6 7 8 8 8 7 8 8
17 15 13 12 11 10 8 7 6 5 4 4 7 7 4 3 2 0 1 3 4 4 2 5 7 4 0 1 5 9 9 8 6 8 12 12 12 8 4 4 6 5 3 4 2 1 3 3 2 5 7 8 9 10 9 6 5 5 3 3 4 4 5 5 4 6 4 5 6 9 10 11 11 11 10 6 7 8 10 9 9 9 9 9 10 9 9 8
19 17 14 13 11 10 9 8 6 6 5 6 8 5 3 4 3 2 3 4 10 9 5 5 5 2 1 3 10 13 7 3 1 5 13 12 11 9 2 2 5 2 2 4 3 1 4 4 7 10 10 9 8 9 7 3 3 2 3 3 4 4 6 6 4 5 1 4 6 6 7 12 11 11 10 5 7 10 13 13 13 12 11 10 10 11 8 6
20 19 16 14 11 10 9 7 5 6 5 8 8 3 2 3 3 2 3 1 10 13 11 6 3 5 4 4 12 11 4 2 1 4 12 10 7 7 2 4 5 3 2 3 3 1 1 4 11 12 6 5 4 5 6 5 5 4 2 2 5 4 4 6 4 3 0 3 5 4 5 10 11 10 9 8 9 10 13 16 16 14 13 11 11 11 9 8
20 20 18 16 12 9 9 7 7 7 7 10 8 5 4 4 4 4 4 1 5 6 7 7 6 7 5 2 10 10 2 4 5 5 12 10 5 5 5 5 5 4 4 5 5 4 3 6 12 9 7 6 4 4 6 4 4 5 4 3 5 3 1 4 5 3 1 2 3 4 5 8 9 8 9 11 10 8 10 14 14 12 12 13 13 12 12 13
21 20 19 17 13 10 8 8 9 8 10 12 11 9 9 7 6 5 3 0 4 4 5 10 8 7 9 6 11 13 4 4 5 6 14 12 5 3 5 6 5 5 5 9 9 6 6 6 4 6 8 8 6 4 6 4 3 5 6 6 6 6 6 6 4 4 4 4 2 3 6 8 7 8 10 7 4 7 8 9 11 10 9 9 10 10 11 13
22 21 20 19 16 12 9 9 11 11 11 10 14 14 13 8 6 5 3 2 3 5 3 7 5 6 12 10 12 11 3 4 4 9 18 16 9 5 3 3 4 5 7 8 7 6 8 5 3 7 6 7 7 6 6 7 5 5 6 10 10 9 8 5 2 5 4 5 3 2 4 7 5 6 9 5 3 7 7 7 11 11 8 8 9 10 10 10
23 22 21 20 18 15 10 7 12 14 10 9 14 17 14 9 6 5 3 3 4 4 1 4 4 8 13 10 10 7 1 5 3 10 19 17 10 5 3 3 2 4 7 5 4 3 5 6 5 7 6 7 7 6 5 7 5 4 6 9 10 8 6 5 1 2 1 5 3 2 2 7 7 4 7 6 6 10 9 7 10 10 8 9 10 10 10 10
25 24 23 21 20 20 12 4 12 15 6 9 16 20 15 10 6 2 3 3 5 3 4 2 2 7 10 10 13 9 3 5 3 7 13 12 8 2 3 5 2 3 4 4 2 3 4 7 6 6 6 6 6 5 6 8 7 5 5 6 8 7 6 5 4 4 3 3 4 3 2 5 9 6 6 7 9 13 12 11 11 9 9 9 9 9 11 12
27 25 24 23 23 25 16 5 13 17 7 4 15 22 17 12 7 2 4 0 4 2 4 2 1 4 4 8 14 8 2 3 6 4 3 5 6 1 2 8 7 7 6 6 5 4 4 8 9 9 6 6 6 5 7 10 6 6 4 6 6 6 5 3 4 3 1 2 4 4 1 3 9 5 2 1 6 11 13 14 13 10 10 9 9 9 10 10
30 27 27 24 24 27 20 10 13 18 12 8 16 23 17 12 7 4 4 3 3 1 1 1 2 1 3 7 9 4 2 2 2 3 1 3 3 2 3 7 6 8 7 6 7 2 2 6 8 9 7 7 5 2 7 10 6 4 5 7 6 5 5 5 4 3 3 1 6 6 4 4 8 4 2 2 3 9 11 12 10 8 10 10 9 9 9 9
32 30 30 26 26 30 25 17 18 19 13 9 17 24 18 9 4 4 2 3 1 1 1 1 2 2 7 10 4 0 2 2 1 2 3 1 1 4 1 2 5 5 3 4 4 2 2 1 2 4 4 5 4 3 3 7 6 5 7 6 7 6 5 4 2 4 1 5 7 9 10 7 6 3 4 3 5 7 8 8 6 4 7 9 9 9 10 10
36 35 34 32 33 34 24 17 24 22 13 11 20 23 13 3 2 4 6 1 1 2 2 1 2 5 12 14 7 2 3 2 0 5 3 1 2 3 1 1 4 3 1 5 5 4 4 2 1 2 3 4 6 4 2 1 4 6 5 5 4 4 4 4 4 4 1 7 5 7 9 9 8 6 4 6 6 5 7 6 6 5 7 9 9 9 9 9
40 38 38 37 36 36 28 22 27 23 14 17 22 15 7 2 1 5 5 2 1 4 5 4 4 7 11 11 8 7 5 2 3 7 6 4 4 5 5 6 5 3 3 6 3 3 2 3 3 2 1 5 6 4 3 4 3 4 5 6 3 2 3 2 3 0 4 7 4 2 3 5 9 8 6 10 11 10 8 7 7 7 8 9 9 9 8 8
40 40 40 41 38 39 36 28 26 23 20 23 17 4 2 6 7 9 8 4 3 3 4 4 3 6 10 9 5 5 3 2 5 5 4 5 5 7 6 5 5 3 2 5 3 1 3 5 2 1 3 3 8 7 3 1 3 5 6 6 5 3 0 3 4 2 4 6 4 1 2 4 6 5 10 16 16 12 8 6 7 8 8 9 10 9 9 9
41 42 43 44 42 41 38 32 28 28 27 23 11 3 4 7 7 11 14 11 5 1 2 4 5 6 7 6 5 6 4 3 6 5 3 5 5 6 6 6 6 2 3 4 3 5 5 6 4 8 4 5 10 9 6 6 5 5 5 6 6 6 4 4 4 4 4 4 4 2 2 4 3 3 8 11 10 8 6 5 6 7 6 6 7 8 9 10
41 46 46 43 41 41 39 36 34 33 28 16 7 7 10 8 6 10 13 11 6 3 3 3 7 7 5 3 3 6 5 3 6 5 4 6 6 7 7 8 11 6 4 4 2 3 5 7 6 4 1 9 11 5 5 7 3 3 2 4 4 5 5 3 3 4 3 2 3 2 4 5 4 5 7 6 7 7 6 5 4 5 3 6 7 9 10 10
38 43 40 37 38 42 42 38 38 38 25 11 6 8 11 10 9 9 7 7 8 5 6 4 4 5 6 3 3 6 3 2 5 5 3 5 5 7 8 7 11 12 9 7 3 3 3 5 4 1 2 5 7 4 4 4 3 2 3 4 4 4 5 3 3 1 2 3 4 3 6 5 3 8 9 8 9 8 7 6 5 5 4 6 8 9 10 10
32 32 27 32 39 44 45 42 42 37 19 10 11 10 9 9 7 6 3 4 8 8 8 5 4 6 7 5 4 7 4 2 5 5 3 3 3 7 9 5 6 15 14 6 2 3 4 3 4 2 1 3 1 4 3 2 4 5 4 6 2 2 2 2 2 3 3 4 5 3 7 6 2 6 5 3 8 10 9 8 5 3 5 7 8 8 9 10
26 21 16 30 42 43 45 46 43 29 9 7 13 11 10 11 9 7 2 3 7 8 8 9 7 6 8 7 5 7 7 4 6 6 4 4 5 8 12 6 5 15 16 6 1 3 4 2 4 1 2 2 3 4 2 4 2 5 4 5 4 1 1 2 2 2 1 4 5 2 5 5 6 6 2 3 9 11 12 9 5 7 9 9 8 8 9 8
18 10 7 27 40 39 45 47 35 17 5 7 11 9 10 13 11 7 3 2 7 10 10 11 8 5 6 8 6 7 9 8 8 7 5 5 5 6 13 10 6 12 15 10 5 2 3 3 3 1 0 1 2 2 4 2 1 3 2 2 2 2 3 3 3 3 3 3 4 3 3 4 6 7 7 10 12 12 12 10 9 12 12 9 8 9 9 10
10 4 4 20 35 40 46 40 20 7 6 9 11 9 9 10 7 6 7 6 5 6 9 11 9 7 6 8 7 7 8 8 9 8 6 7 6 5 9 10 6 8 12 12 8 3 2 3 3 2 2 1 2 4 8 10 6 3 4 5 3 1 2 1 1 2 4 2 3 4 7 7 4 5 9 11 11 12 13 11 11 12 9 9 9 9 10 10
5 4 3 14 34 44 39 23 9 7 8 9 11 10 9 6 4 7 12 8 2 1 3 6 9 9 7 8 8 7 7 6 8 8 5 7 8 6 7 10 9 8 8 8 8 6 4 4 3 2 1 3 5 4 6 9 7 6 7 9 8 6 4 2 3 2 3 3 4 3 8 10 4 4 7 9 9 10 10 9 10 9 8 9 9 10 11 11
4 5 3 17 39 44 25 8 6 8 7 8 9 7 5 5 3 5 9 8 5 3 1 2 6 8 7 7 7 7 7 6 8 8 6 9 11 8 7 10 12 13 12 9 11 9 4 3 3 3 3 5 6 5 3 3 2 2 3 5 7 7 7 6 6 4 3 3 2 3 5 9 2 3 5 5 6 6 4 6 8 7 7 8 8 9 10 9
3 4 3 21 44 39 16 7 9 7 6 6 6 3 3 5 5 4 6 8 8 6 5 4 4 7 8 7 7 8 8 7 10 12 8 8 10 8 8 12 13 14 11 8 8 5 3 3 3 2 2 2 4 4 3 2 2 2 2 4 7 9 9 6 4 3 3 5 4 3 6 7 1 2 3 2 4 4 3 6 8 7 5 7 9 9 9 9
3 3 1 21 44 34 11 8 11 9 9 8 8 9 6 5 7 8 9 11 10 8 8 7 4 5 7 6 7 9 11 8 9 13 11 7 7 6 9 14 14 13 10 7 7 6 4 4 4 2 1 3 4 3 3 2 3 4 5 6 8 9 7 3 1 2 3 7 8 5 10 7 1 3 2 2 4 4 4 6 7 7 6 7 8 7 8 9
3 3 1 13 31 23 7 8 10 10 12 14 14 15 12 6 7 12 12 11 10 8 8 10 8 5 3 5 6 8 12 12 10 10 10 7 4 2 8 14 15 13 10 9 11 11 6 5 6 6 7 8 8 7 6 5 4 3 5 9 11 11 12 7 2 4 8 6 9 9 14 8 1 4 4 2 3 5 7 6 5 7 7 6 7 8 8 9
2 4 2 4 11 10 7 9 9 8 12 15 13 14 17 13 8 11 12 9 11 12 10 10 10 8 5 6 7 6 11 15 11 5 7 9 4 1 4 9 13 13 9 8 10 8 4 4 10 12 13 14 13 7 5 9 7 7 10 13 14 15 14 9 5 8 7 3 6 14 14 12 10 6 6 5 3 5 7 5 6 7 6 6 7 8 8 8
3 4 4 3 3 7 8 8 8 7 10 13 9 9 17 19 12 9 10 10 11 13 11 9 8 10 10 10 9 8 10 12 9 6 7 9 4 2 2 3 8 9 5 6 8 6 3 4 12 17 17 20 20 10 9 13 14 16 16 15 16 16 15 13 13 14 7 5 12 15 9 14 20 13 9 8 5 6 8 8 8 7 6 5 5 6 8 9
3 3 3 1 2 5 9 9 9 9 11 12 8 7 15 19 15 10 10 12 12 11 9 8 11 14 16 16 13 10 9 9 9 10 9 6 3 1 1 0 3 4 4 5 5 5 4 7 12 17 19 23 22 10 11 14 13 13 16 17 18 17 18 19 21 18 11 9 18 15 11 17 22 14 12 10 8 10 10 8 6 4 5 5 6 7 9 9
3 3 3 2 2 4 7 9 9 9 11 11 8 8 12 16 18 13 9 8 9 11 11 12 17 21 20 18 13 11 12 10 10 11 8 6 5 4 3 2 2 0 4 5 3 2 4 7 9 12 16 22 19 8 9 11 8 7 12 16 17 19 23 23 22 21 16 16 21 17 13 19 17 9 10 10 10 9 5 3 3 5 6 7 8 9 10 10
3 2 2 2 3 3 5 7 6 6 8 7 5 7 8 13 18 15 10 10 11 13 15 18 22 21 21 19 15 14 16 14 15 14 10 9 8 6 5 5 3 2 3 4 3 1 3 4 3 6 8 16 14 8 8 9 8 7 9 12 17 20 21 19 18 18 16 17 23 20 17 20 12 7 8 8 5 5 4 6 8 7 7 8 9 10 10 11
7 3 1 2 4 4 4 5 5 7 7 6 4 4 6 11 15 11 9 10 12 12 15 22 25 18 15 18 17 19 20 19 19 16 10 11 10 7 6 5 6 7 6 5 4 2 3 3 2 4 5 12 10 8 8 7 5 6 9 15 19 16 13 14 16 16 16 18 21 16 15 18 10 6 6 6 6 7 9 10 9 7 8 9 11 11 10 11
7 3 1 2 4 5 4 3 5 7 6 7 9 9 9 10 11 9 6 5 8 10 11 18 21 13 10 17 22 23 21 16 12 7 4 6 4 2 3 4 7 9 7 5 3 2 4 4 1 3 6 10 6 7 7 5 3 6 13 19 20 14 11 14 15 17 18 17 15 13 16 17 7 5 6 7 9 11 11 10 9 8 9 10 11 11 10 11
Wind_Direction
126 126 169 161 89 12 0 348 305 149 122 272 237 220 218 217 223 233 241 249 260 273 277 284 293 298 304 315 321 324 334 338 328 207 160 173 148 130 108 81 60 30 18 15 14 13 20 20 3 2 15 30 25 358 350 8 56 56 79 85 82 164 162 176 182 195 174 168 197 219 166 132 166 237 133 36 42 77 59 38 16 14 39 72 103 112 118 142
156 158 162 93 89 71 38 10 346 309 203 240 234 224 214 195 207 223 228 246 256 267 274 281 292 297 306 319 321 328 336 338 326 170 154 161 144 127 110 81 54 36 29 28 25 23 24 350 337 358 25 28 348 2 17 359 56 82 108 86 157 199 195 208 183 198 194 161 171 192 162 148 172 178 129 107 350 126 87 26 8 38 56 80 98 110 120 133
166 171 160 115 104 94 50 24 23 348 296 217 210 204 200 199 206 220 229 242 255 264 275 279 289 299 310 318 323 334 337 343 24 214 169 156 143 128 108 78 47 33 30 22 10 7 3 317 323 0 35 31 341 12 35 18 48 115 105 80 228 209 184 274 172 182 209 155 143 159 155 139 182 182 133 158 170 176 161 178 169 173 177 143 111 110 118 122
165 172 171 112 66 53 30 24 34 9 337 305 167 167 184 194 198 220 235 241 263 265 270 280 292 303 311 317 327 336 342 26 133 219 160 154 143 130 107 75 42 28 18 10 2 359 350 334 355 42 55 28 327 24 46 359 43 88 95 137 211 172 126 262 215 150 110 128 141 141 103 115 216 206 135 142 138 246 237 207 190 189 179 165 152 121 119 120
184 173 161 109 63 33 19 33 27 15 351 348 53 124 160 189 204 211 237 245 262 264 272 285 295 307 312 319 330 334 358 65 221 200 155 157 147 135 109 72 40 25 11 6 5 16 16 16 43 46 56 34 337 29 26 295 78 73 38 177 192 141 137 241 239 180 107 98 103 112 129 154 211 302 147 152 168 230 237 215 193 172 162 158 152 134 122 120
215 184 171 254 33 28 4 17 13 9 23 49 82 123 140 196 211 203 242 252 256 265 283 292 302 310 316 321 329 339 41 108 242 180 163 163 152 147 121 76 41 22 355 5 20 31 32 29 46 48 46 41 8 62 323 307 60 101 358 313 211 155 149 199 208 196 124 109 123 157 177 133 104 271 192 169 200 239 254 189 154 143 148 145 138 134 127 127
227 217 211 253 310 8 357 3 6 9 19 11 33 121 144 207 225 237 250 262 269 283 293 301 310 310 321 329 334 14 90 245 237 170 171 166 163 166 143 86 42 23 345 19 28 36 49 39 53 95 69 54 89 101 30 342 39 93 120 313 335 121 145 181 172 144 123 135 181 167 111 149 169 195 207 192 223 251 23 104 117 127 135 135 131 133 138 140
220 231 227 239 269 291 337 347 0 1 353 336 337 33 240 265 290 289 285 281 290 306 300 308 317 315 327 335 5 22 349 253 192 171 175 168 170 177 170 167 31 22 29 39 27 42 74 50 53 121 75 63 153 110 35 27 29 72 137 259 343 4 222 220 171 142 146 155 162 116 141 224 200 166 228 220 208 178 136 103 109 120 122 128 131 136 145 144
217 226 232 239 256 269 285 305 331 334 338 332 319 312 306 314 326 340 322 301 306 300 302 315 316 319 326 2 87 45 280 229 175 174 175 174 177 185 197 207 23 11 66 50 38 67 86 93 200 160 127 194 121 89 3 50 11 170 150 205 345 318 307 237 228 206 188 185 147 146 248 263 244 194 266 221 181 173 132 107 115 121 121 132 136 146 149 147
246 245 238 241 255 270 279 291 299 302 319 318 305 302 304 312 316 340 334 315 303 286 298 303 311 324 312 31 90 171 266 202 174 174 175 183 187 193 210 230 268 223 94 66 56 68 96 163 205 154 131 139 74 57 353 77 156 174 142 188 205 295 301 180 221 240 209 232 181 181 241 279 306 237 248 230 177 165 128 123 134 127 135 146 144 155 150 150
279 285 269 258 261 268 273 278 288 295 304 309 306 301 296 295 291 322 331 310 281 268 290 289 312 309 281 77 111 198 251 172 175 173 178 189 193 203 215 234 239 209 135 92 77 79 104 170 188 130 104 68 54 19 0 111 138 135 116 296 307 338 311 229 232 244 181 239 186 163 231 287 344 242 232 211 170 161 143 146 154 139 148 152 150 156 147 150
276 285 280 274 270 270 271 272 279 286 292 298 298 304 309 288 263 236 190 214 238 242 285 283 302 278 1 67 150 217 233 187 183 179 186 192 192 202 205 218 216 195 176 121 101 92 85 59 92 95 120 148 106 17 38 154 116 115 78 340 308 360 337 254 247 217 161 198 178 136 313 290 230 229 246 182 155 152 147 157 167 160 163 157 157 154 154 158
269 278 282 279 274 270 270 269 270 274 282 286 287 304 315 292 263 213 180 170 176 185 242 246 266 133 95 42 227 226 228 206 195 188 187 190 193 200 196 195 189 170 161 122 112 91 73 39 85 107 136 110 121 247 116 49 63 60 52 66 308 3 335 277 307 151 154 183 172 135 294 274 245 248 259 164 153 145 154 174 178 173 175 170 169 161 170 174
269 276 280 280 275 272 274 273 269 267 278 289 300 313 312 297 239 201 173 161 164 170 196 169 174 127 104 242 248 242 231 213 201 190 180 186 184 183 182 175 171 159 137 108 105 79 68 76 85 94 96 92 150 133 43 8 26 348 0 36 354 11 284 292 325 146 157 207 143 121 236 265 270 268 222 180 166 158 171 187 182 183 185 181 181 172 183 193
266 271 276 279 279 275 276 280 278 272 277 300 319 313 305 271 195 189 165 160 160 158 163 153 160 122 75 280 270 236 218 210 201 188 179 183 175 166 167 162 153 133 120 106 111 99 87 103 87 81 1 13 58 68 23 350 8 28 0 320 337 168 266 304 284 163 162 230 96 122 218 269 278 271 200 178 175 170 178 190 188 190 189 186 191 181 184 198
260 263 269 274 278 278 278 284 284 276 276 300 308 297 276 182 171 164 157 153 145 139 126 127 143 120 90 277 271 209 208 203 195 184 178 181 180 169 153 146 131 117 117 104 114 115 76 71 71 91 134 47 67 82 43 8 344 355 94 255 276 195 277 318 307 205 167 129 131 188 230 269 282 295 197 179 182 182 187 199 197 195 194 190 191 187 182 181
254 256 261 267 275 281 281 286 285 278 272 273 270 223 167 159 157 152 145 133 125 116 103 112 128 115 79 236 207 234 203 188 186 180 179 184 185 169 147 129 109 110 101 86 98 91 43 42 38 309 58 64 92 93 57 344 298 318 14 238 249 211 237 299 304 293 149 145 206 223 239 251 263 295 209 201 189 187 203 210 203 200 198 195 192 190 186 179
251 251 254 258 269 279 285 290 286 270 247 233 202 149 134 123 127 134 140 135 111 87 81 91 102 113 264 223 194 209 168 173 178 174 178 178 171 164 145 124 117 106 75 49 47 42 23 19 48 65 26 29 99 104 132 227 214 202 201 217 262 249 227 250 276 255 158 171 213 204 237 253 263 268 221 212 198 198 216 217 207 206 202 200 198 194 193 187
247 247 249 253 260 268 275 291 287 251 226 214 164 137 116 89 92 118 139 142 124 110 162 209 152 150 234 222 169 120 128 153 162 169 172 162 163 156 119 112 103 93 90 64 346 8 79 42 55 106 208 219 187 164 187 206 179 172 181 170 201 244 253 232 252 242 180 175 224 209 227 246 255 259 236 215 201 210 228 227 215 213 208 205 202 200 197 193
246 243 244 247 249 254 261 283 277 228 211 193 157 137 122 91 58 311 195 184 206 185 157 203 191 163 237 233 135 122 123 134 148 175 171 164 162 141 92 80 59 52 108 150 202 312 102 113 173 199 209 206 197 196 203 191 149 144 150 171 205 224 266 256 259 273 181 165 241 222 229 248 249 255 251 216 193 217 232 231 225 214 210 207 203 203 197 192
244 240 240 240 242 245 247 270 257 203 199 188 164 148 171 162 144 224 219 247 255 243 239 228 212 235 299 164 154 144 128 111 24 182 174 171 159 146 121 67 81 45 232 158 143 38 95 153 221 224 211 201 197 201 209 201 162 173 184 234 259 225 253 260 245 287 176 173 258 242 237 257 253 253 258 208 180 217 222 220 226 218 213 209 203 202 191 176
242 240 236 234 238 236 236 253 220 185 194 191 182 187 217 168 128 137 149 254 270 246 235 241 267 285 275 182 172 160 102 106 185 211 183 171 159 169 161 97 133 184 197 125 100 51 123 215 238 231 189 157 191 191 190 217 224 232 222 243 269 244 268 280 268 303 26 179 261 278 261 262 257 252 252 222 202 222 219 214 222 216 210 207 200 196 180 170
240 238 234 231 232 227 228 224 187 185 203 195 199 202 175 147 115 103 124 117 289 249 219 215 222 234 230 217 187 177 151 162 175 220 189 166 163 183 146 136 168 154 140 159 157 167 195 245 244 218 152 150 205 189 162 198 240 229 219 221 254 250 250 276 288 314 303 227 263 294 294 273 265 258 248 233 221 234 231 222 226 219 211 208 199 192 181 178
235 233 233 229 223 217 217 200 182 201 211 207 219 197 154 140 125 107 118 88 286 265 221 204 205 204 201 207 186 180 204 194 167 193 187 167 144 162 159 163 157 135 178 194 183 194 216 239 236 157 155 173 197 204 170 179 247 239 215 208 231 239 219 232 283 328 333 332 327 325 309 281 259 248 249 251 247 256 245 228 233 230 220 206 190 192 189 182
229 227 228 224 217 209 199 190 195 206 203 215 224 189 151 143 125 102 94 21 282 283 272 207 202 204 196 184 173 172 188 233 208 184 181 173 152 145 180 167 138 176 202 190 187 229 237 231 103 115 156 174 184 213 193 181 220 262 226 208 218 224 221 235 323 14 354 325 330 7 300 279 272 247 254 286 309 258 243 225 231 228 215 196 185 190 188 183
227 225 222 219 215 198 184 202 210 199 194 222 211 175 156 150 121 107 95 37 283 267 207 186 186 190 185 166 156 141 112 244 233 163 172 179 172 137 154 166 104 199 190 162 189 243 230 210 153 133 152 167 187 226 216 180 185 259 238 204 206 203 206 232 227 68 265 265 298 57 192 268 285 249 241 257 261 257 251 240 239 229 212 202 195 190 181 180
223 222 217 215 211 191 177 210 200 180 185 238 198 169 163 158 137 132 90 27 283 207 146 198 184 167 174 166 154 135 194 217 102 144 171 183 193 104 141 181 141 196 174 127 240 254 174 189 190 161 150 167 193 227 217 174 163 243 242 168 171 182 200 217 188 188 227 257 315 7 123 269 280 255 235 232 243 264 266 255 248 230 213 209 202 191 183 183
221 219 213 212 209 197 189 178 178 179 183 203 177 171 169 167 166 122 94 202 270 145 136 235 164 139 144 162 159 144 237 177 119 189 192 163 194 76 177 199 174 184 178 148 218 262 148 174 193 180 175 197 205 212 185 159 170 245 208 131 135 157 166 145 141 184 307 14 295 289 118 263 272 263 300 254 234 261 265 254 249 229 212 209 201 192 184 183
220 217 212 210 208 206 205 192 188 200 194 140 158 172 167 165 167 77 85 203 259 93 140 154 140 121 87 149 170 146 31 46 130 211 54 132 188 61 182 199 158 174 197 194 213 252 133 189 190 172 184 209 204 196 168 165 195 215 134 96 70 76 76 74 104 118 41 346 244 232 178 242 271 232 128 45 234 247 256 257 254 227 208 204 194 190 181 176
221 219 212 204 201 202 201 206 215 214 203 161 157 161 154 150 138 94 167 218 253 237 221 141 177 173 141 152 182 1 94 37 0 105 63 113 42 28 165 146 95 143 220 275 249 265 331 271 192 164 186 188 143 93 159 179 178 135 99 64 45 34 38 46 54 78 34 275 235 205 188 207 273 261 175 204 220 223 237 263 278 232 203 201 192 188 182 176
220 219 211 200 198 196 189 207 217 209 203 180 156 147 142 116 82 161 198 231 320 209 139 170 198 146 156 164 174 182 128 42 66 146 138 142 78 46 88 112 80 98 301 288 281 315 339 346 253 224 165 122 99 83 34 42 121 109 90 81 66 352 10 21 359 45 231 259 241 210 194 194 237 257 230 246 263 240 221 241 262 235 209 204 196 190 182 177
219 216 212 204 200 196 194 205 203 194 189 172 157 146 149 160 198 214 206 85 279 208 162 183 200 168 170 173 174 170 148 127 181 167 157 154 169 183 192 189 163 135 242 236 249 328 299 236 258 304 200 140 118 103 30 15 61 96 103 109 113 302 354 352 307 293 230 258 278 241 187 206 238 249 255 265 270 259 232 222 232 228 216 206 197 187 177 172
221 215 213 208 201 197 201 204 193 184 179 169 160 146 163 181 200 206 200 184 207 208 144 139 145 158 165 168 180 167 132 162 178 172 168 152 177 209 223 224 188 161 197 192 184 204 263 294 301 197 267 190 155 162 181 213 170 151 142 142 156 173 141 266 258 269 261 267 305 335 178 245 274 262 241 244 252 258 252 233 228 230 223 208 193 179 170 171
226 216 211 208 204 202 201 200 192 182 173 165 157 144 184 207 206 196 206 214 203 102 102 127 107 122 162 178 198 170 151 213 180 157 165 153 170 215 229 240 220 173 99 146 174 180 213 285 210 182 219 189 181 191 169 136 159 182 155 143 162 162 173 220 216 225 256 280 305 302 188 206 220 248 240 240 260 275 274 260 245 245 230 187 168 164 168 177
229 217 209 205 204 204 199 195 190 178 168 163 163 174 187 207 207 203 215 211 185 84 54 111 110 124 189 239 253 188 168 207 180 154 170 176 189 202 197 211 205 176 136 175 212 166 198 267 237 200 177 168 182 196 120 108 146 227 121 121 181 181 179 222 207 180 191 291 291 227 224 221 209 264 269 261 280 281 283 295 266 241 198 143 158 172 175 181
226 212 205 201 202 203 196 192 188 178 168 162 175 190 199 206 200 203 211 191 186 158 107 104 101 138 198 217 237 215 181 118 158 162 200 203 217 209 200 212 197 185 183 180 184 153 172 277 277 12 32 174 179 162 131 143 179 174 137 175 207 169 158 213 272 47 81 268 263 197 243 284 310 279 260 234 253 272 288 291 252 221 177 163 182 183 181 184
220 207 202 202 205 204 195 190 186 181 175 171 186 199 208 218 213 196 189 171 177 157 138 176 183 162 189 196 204 207 188 110 160 177 197 198 240 215 204 231 193 193 201 183 178 196 165 256 282 106 158 254 198 110 68 18 133 131 179 202 173 74 101 135 255 345 38 258 268 210 240 271 270 271 281 214 241 263 269 261 243 223 196 195 200 188 188 187
218 206 210 211 209 202 193 187 183 181 183 183 194 202 202 218 220 194 178 123 145 151 173 207 198 162 179 191 194 188 179 177 179 187 190 192 243 207 184 204 204 199 205 183 187 236 162 224 297 69 168 296 12 107 58 352 86 127 184 186 124 131 210 118 174 233 202 254 283 260 247 249 210 227 281 196 221 239 249 244 231 227 212 204 203 191 189 183
224 205 233 220 210 199 189 185 180 181 200 189 196 203 203 216 212 188 215 180 156 167 192 211 203 176 184 181 169 173 186 189 173 179 191 189 233 209 177 189 206 199 198 183 189 217 143 200 268 335 194 345 24 149 182 236 28 56 97 147 109 147 180 164 170 176 167 238 284 294 280 249 214 202 195 208 216 220 232 231 224 227 216 201 197 188 187 186
226 215 259 216 204 194 187 185 182 193 206 193 198 199 203 214 192 180 224 222 172 178 202 210 200 190 193 181 171 175 190 193 174 182 207 191 213 236 190 183 177 179 186 186 193 174 129 208 236 314 336 168 191 200 186 184 179 162 159 170 182 128 107 173 201 139 138 178 235 272 279 263 226 186 191 206 215 214 218 220 226 230 213 199 198 188 189 191
209 240 265 194 190 185 182 186 194 202 203 200 204 205 203 197 149 181 213 217 217 234 208 209 205 200 193 184 189 183 174 185 184 190 219 205 208 236 203 174 157 151 156 178 205 198 181 192 175 174 235 205 225 248 212 198 190 183 190 187 182 165 141 180 237 199 145 192 189 204 271 269 233 188 199 203 217 226 220 215 232 237 207 200 202 191 192 193
211 241 205 174 179 175 172 197 208 197 212 205 205 210 185 171 159 179 197 206 233 259 307 249 215 207 200 188 193 183 167 179 190 194 222 216 210 219 204 179 161 154 151 175 204 196 147 120 155 189 211 215 240 274 269 226 170 127 203 191 172 180 176 180 221 214 167 223 181 122 277 278 234 188 216 216 236 259 245 217 232 241 211 200 201 192 193 196
230 244 169 173 177 172 170 210 198 200 228 214 218 228 155 177 195 166 167 194 212 216 224 238 202 203 216 200 180 179 183 191 192 199 217 223 217 216 193 176 159 157 165 180 197 184 108 127 179 235 309 315 303 313 340 0 99 116 230 184 176 202 199 185 202 175 173 220 171 117 266 266 253 233 234 235 256 265 248 227 228 234 216 196 198 192 188 192
248 257 150 179 181 179 183 203 189 198 212 208 218 217 206 204 196 186 183 191 199 205 216 225 196 194 215 201 182 186 191 200 206 207 211 217 227 215 184 177 166 166 183 183 170 170 173 172 159 156 276 322 326 297 283 262 180 198 221 195 194 202 189 169 99 107 230 217 157 170 251 242 197 297 294 10 322 295 261 245 232 225 215 198 196 190 185 187
268 252 284 186 186 187 206 205 191 195 197 200 206 206 212 219 198 201 201 193 198 202 213 225 216 199 192 186 196 194 193 205 217 212 210 219 246 229 188 187 180 182 199 193 170 166 175 176 160 175 216 230 227 221 213 192 170 207 210 190 199 199 186 185 180 199 235 209 150 198 245 248 357 320 296 332 345 297 274 267 250 234 220 197 189 188 186 188
263 244 240 193 191 198 219 211 201 199 195 197 201 201 206 212 207 203 199 199 204 202 214 229 214 204 208 198 202 204 204 214 216 194 203 213 220 294 206 194 194 200 199 181 168 155 147 179 182 192 211 226 234 231 157 138 156 207 207 191 198 203 194 191 209 220 216 158 193 223 239 261 272 265 268 277 258 258 270 271 258 246 227 203 195 190 186 186
242 241 213 202 213 209 215 217 210 208 198 194 193 189 198 208 212 193 190 205 206 199 214 231 211 206 210 201 209 218 212 215 215 199 207 208 200 303 288 192 203 209 179 162 171 144 113 192 198 202 214 229 239 232 159 159 183 203 202 194 200 202 192 193 214 219 172 134 243 235 210 249 259 245 235 250 242 246 254 247 246 241 221 204 183 177 182 182
227 253 234 230 257 215 217 216 205 208 205 195 193 194 196 205 207 189 190 209 209 197 202 220 220 217 213 204 207 217 209 206 214 215 213 197 161 162 321 350 223 202 147 169 184 142 154 206 208 207 218 232 236 217 173 183 193 200 200 198 199 196 194 201 215 219 183 185 245 242 187 224 249 245 230 227 217 226 234 232 231 211 195 181 162 178 192 186
220 264 268 263 270 237 236 225 205 210 209 190 192 211 204 205 208 202 190 194 206 203 198 211 218 216 216 211 203 210 211 203 214 218 200 176 171 161 162 211 258 106 124 167 183 149 186 205 208 203 217 235 234 193 173 192 185 194 207 203 199 198 200 205 214 220 210 216 241 245 228 239 247 232 223 223 214 218 215 184 187 187 189 183 180 193 197 193
208 251 264 289 289 268 265 248 215 218 219 192 194 215 207 211 213 209 193 182 192 200 199 214 221 214 214 216 210 218 219 208 217 219 182 169 191 187 183 194 178 135 144 167 173 247 210 193 167 158 208 242 235 179 171 192 184 204 220 215 212 209 206 208 215 220 218 227 240 244 251 259 249 190 208 220 190 178 182 199 213 209 194 185 192 203 200 198
220 251 261 315 298 250 247 254 219 220 225 204 195 198 202 218 217 211 208 200 199 199 197 212 222 218 213 216 216 226 227 219 225 226 190 182 199 197 196 189 157 161 174 167 154 162 193 194 107 115 197 241 228 171 173 185 185 223 241 233 224 212 204 210 216 216 212 221 236 240 248 256 243 173 187 194 170 190 212 217 220 214 196 188 198 205 199 198
216 266 222 228 268 240 231 248 224 223 224 202 199 193 193 213 212 202 216 225 218 218 209 215 222 218 209 215 218 224 228 224 227 231 186 184 194 156 175 156 137 149 155 148 138 137 155 167 149 146 206 243 228 157 162 165 177 239 245 239 228 206 201 218 224 224 217 215 223 226 234 245 235 154 177 195 197 211 217 215 213 208 200 198 204 202 194 197